,,Stat6,,Stat2,,Stat8,,Stat9,,Stat10,,Wind1,,Wind1,
time,status,PA1M_AVG,status,PR1M_SUM,status,RH1M_AVG,status,SR1M_AVG,status,TA1M_AVG,status,W1dAve1m,status,W1sAve1m,
2004-01-12, 00:00:00,VALID,918.614,VALID,0,VALID,93.8966,VALID,-0.0849042,VALID,20.8932,VALID,109,VALID,1.24037,
2004-01-12, 00:01:00,VALID,918.603,VALID,0,VALID,93.9309,VALID,-0.0849042,VALID,20.8929,VALID,129,VALID,1.38754,
2004-01-12, 00:02:00,VALID,918.579,VALID,0,VALID,93.744,VALID,-0.0849042,VALID,20.8897,VALID,130,VALID,1.57412,
2004-01-12, 00:03:00,VALID,918.596,VALID,0,VALID,93.8393,VALID,-0.0339617,VALID,20.8994,VALID,111,VALID,1.23177,
2004-01-12, 00:04:00,VALID,918.576,VALID,0,VALID,93.8317,VALID,-0.0339617,VALID,20.8865,VALID,118,VALID,1.61354,
2004-01-12, 00:05:00,VALID,918.576,VALID,0,VALID,93.7376,VALID,-0.0169808,VALID,20.883,VALID,117,VALID,1.60356,
2004-01-12, 00:06:00,VALID,918.569,VALID,0,VALID,93.3472,VALID,-0.0679233,VALID,20.8999,VALID,133,VALID,1.94822,
2004-01-12, 00:07:00,VALID,918.562,VALID,0,VALID,93.1705,VALID,-0.0849042,VALID,20.9322,VALID,93,VALID,1.64702,
2004-01-12, 00:08:00,VALID,918.568,VALID,0,VALID,93.3409,VALID,-0.0849042,VALID,20.9543,VALID,117,VALID,1.54469,
2004-01-12, 00:09:00,VALID,918.566,VALID,0,VALID,93.1349,VALID,-0.0849042,VALID,20.9548,VALID,100,VALID,1.63746,
2004-01-12, 00:10:00,VALID,918.556,VALID,0,VALID,92.6936,VALID,-0.101885,VALID,20.9608,VALID,117,VALID,1.68398,
2004-01-12, 00:11:00,VALID,918.555,VALID,0,VALID,92.7012,VALID,-0.0679233,VALID,20.9966,VALID,122,VALID,1.67969,
2004-01-12, 00:12:00,VALID,918.567,VALID,0,VALID,92.4088,VALID,-0.0169808,VALID,21.0187,VALID,128,VALID,2.19606,
2004-01-12, 00:13:00,VALID,918.557,VALID,0,VALID,92.0883,VALID,0.0509425,VALID,21.0372,VALID,95,VALID,1.7035,
2004-01-12, 00:14:00,VALID,918.566,VALID,0,VALID,91.7005,VALID,0.0339617,VALID,21.0725,VALID,144,VALID,2.05895,
2004-01-12, 00:15:00,VALID,918.584,VALID,0,VALID,91.6674,VALID,0,VALID,21.1051,VALID,88,VALID,1.33479,
2004-01-12, 00:16:00,VALID,918.594,VALID,0,VALID,91.5873,VALID,0,VALID,21.1312,VALID,108,VALID,1.79427,
2004-01-12, 00:17:00,VALID,918.606,VALID,0,VALID,91.4385,VALID,0.0339617,VALID,21.1406,VALID,119,VALID,1.69896,
2004-01-12, 00:18:00,VALID,918.611,VALID,0,VALID,91.3966,VALID,0.0169808,VALID,21.1538,VALID,93,VALID,1.65625,
2004-01-12, 00:19:00,VALID,918.613,VALID,0,VALID,91.5237,VALID,0.0169808,VALID,21.1597,VALID,122,VALID,0.902876,
2004-01-12, 00:20:00,VALID,918.6,VALID,0,VALID,91.5632,VALID,0.0169808,VALID,21.1465,VALID,113,VALID,1.18986,
2004-01-12, 00:21:00,VALID,918.611,VALID,0,VALID,91.7132,VALID,0.0169808,VALID,21.1239,VALID,99,VALID,1.0827,
2004-01-12, 00:22:00,VALID,918.587,VALID,0,VALID,91.7374,VALID,0.0169808,VALID,21.121,VALID,99,VALID,1.47734,
2004-01-12, 00:23:00,VALID,918.591,VALID,0,VALID,91.2732,VALID,0.0169808,VALID,21.111,VALID,123,VALID,1.99182,
2004-01-12, 00:24:00,VALID,918.581,VALID,0,VALID,90.8676,VALID,0.0339617,VALID,21.1401,VALID,69,VALID,1.6849,
2004-01-12, 00:25:00,VALID,918.591,VALID,0,VALID,90.6794,VALID,0.0679233,VALID,21.1853,VALID,72,VALID,1.24627,
2004-01-12, 00:26:00,VALID,918.6,VALID,0,VALID,91.0914,VALID,0.0509425,VALID,21.2144,VALID,118,VALID,1.31678,
2004-01-12, 00:27:00,VALID,918.589,VALID,0,VALID,91.3572,VALID,0.0679233,VALID,21.1791,VALID,131,VALID,1.61471,
2004-01-12, 00:28:00,VALID,918.581,VALID,0,VALID,91.497,VALID,0,VALID,21.1471,VALID,95,VALID,1.3684,
2004-01-12, 00:29:00,VALID,918.553,VALID,0,VALID,91.3737,VALID,0,VALID,21.1309,VALID,126,VALID,1.14698,
2004-01-12, 00:30:00,VALID,918.569,VALID,0,VALID,91.3953,VALID,0,VALID,21.1239,VALID,104,VALID,0.892078,
2004-01-12, 00:31:00,VALID,918.555,VALID,0,VALID,91.5899,VALID,0,VALID,21.1468,VALID,118,VALID,0.906977,
2004-01-12, 00:32:00,VALID,918.525,VALID,0,VALID,91.3661,VALID,0.0679233,VALID,21.118,VALID,129,VALID,2.13783,
2004-01-12, 00:33:00,VALID,918.538,VALID,0,VALID,91.6763,VALID,0.0169808,VALID,21.1282,VALID,117,VALID,0.974564,
2004-01-12, 00:34:00,VALID,918.531,VALID,0,VALID,91.7806,VALID,0.0339617,VALID,21.0884,VALID,88,VALID,1.51308,
2004-01-12, 00:35:00,VALID,918.524,VALID,0,VALID,91.9675,VALID,0.0339617,VALID,21.0598,VALID,111,VALID,0.672461,
2004-01-12, 00:36:00,VALID,918.504,VALID,0,VALID,91.9205,VALID,0.0169808,VALID,21.0181,VALID,112,VALID,1.64153,
2004-01-12, 00:37:00,VALID,918.502,VALID,0,VALID,92.0667,VALID,0.0509425,VALID,21.0052,VALID,88,VALID,1.07254,
2004-01-12, 00:38:00,VALID,918.498,VALID,0,VALID,91.9205,VALID,0.0339617,VALID,20.9826,VALID,93,VALID,1.27637,
2004-01-12, 00:39:00,VALID,918.491,VALID,0,VALID,91.6941,VALID,0,VALID,20.992,VALID,113,VALID,1.31936,
2004-01-12, 00:40:00,VALID,918.497,VALID,0,VALID,91.7742,VALID,0.0339617,VALID,20.995,VALID,86,VALID,1.25982,
2004-01-12, 00:41:00,VALID,918.494,VALID,0,VALID,91.7094,VALID,0.0339617,VALID,20.9952,VALID,110,VALID,1.79859,
2004-01-12, 00:42:00,VALID,918.5,VALID,0,VALID,91.3216,VALID,-0.0509425,VALID,20.999,VALID,129,VALID,1.69892,
2004-01-12, 00:43:00,VALID,918.491,VALID,0,VALID,91.4373,VALID,-0.0849042,VALID,21.0388,VALID,137,VALID,1.23234,
2004-01-12, 00:44:00,VALID,918.494,VALID,0,VALID,91.6484,VALID,-0.101885,VALID,21.0324,VALID,119,VALID,0.942042,
2004-01-12, 00:45:00,VALID,918.484,VALID,0,VALID,91.8277,VALID,-0.0849042,VALID,20.9901,VALID,128,VALID,1.45739,
2004-01-12, 00:46:00,VALID,918.479,VALID,0,VALID,91.9828,VALID,-0.118866,VALID,20.9616,VALID,145,VALID,1.72256,
2004-01-12, 00:47:00,VALID,918.475,VALID,0,VALID,92.0413,VALID,-0.0679233,VALID,20.9352,VALID,134,VALID,1.80097,
2004-01-12, 00:48:00,VALID,918.483,VALID,0,VALID,92.0108,VALID,-0.0339617,VALID,20.9155,VALID,136,VALID,1.70137,
2004-01-12, 00:49:00,VALID,918.472,VALID,0,VALID,91.9612,VALID,-0.0849042,VALID,20.9285,VALID,129,VALID,1.72847,
2004-01-12, 00:50:00,VALID,918.448,VALID,0,VALID,91.8302,VALID,-0.0509425,VALID,20.9287,VALID,133,VALID,1.75056,
2004-01-12, 00:51:00,VALID,918.421,VALID,0,VALID,91.8035,VALID,-0.101885,VALID,20.9419,VALID,131,VALID,1.6875,
2004-01-12, 00:52:00,VALID,918.415,VALID,0,VALID,91.8798,VALID,-0.0849042,VALID,20.9285,VALID,133,VALID,1.53018,
2004-01-12, 00:53:00,VALID,918.412,VALID,0,VALID,91.8277,VALID,-0.0849042,VALID,20.9056,VALID,121,VALID,2.06898,
2004-01-12, 00:54:00,VALID,918.39,VALID,0,VALID,91.8823,VALID,-0.0509425,VALID,20.9228,VALID,122,VALID,1.6657,
2004-01-12, 00:55:00,VALID,918.386,VALID,0,VALID,91.9357,VALID,-0.0339617,VALID,20.9061,VALID,134,VALID,1.66445,
2004-01-12, 00:56:00,VALID,918.347,VALID,0,VALID,91.8849,VALID,-0.0339617,VALID,20.9032,VALID,138,VALID,1.54865,
2004-01-12, 00:57:00,VALID,918.338,VALID,0,VALID,92.007,VALID,-0.0849042,VALID,20.8932,VALID,137,VALID,1.62028,
2004-01-12, 00:58:00,VALID,918.328,VALID,0,VALID,92.0019,VALID,-0.0849042,VALID,20.8867,VALID,130,VALID,1.99947,
2004-01-12, 00:59:00,VALID,918.317,VALID,0,VALID,92.0324,VALID,-0.0679233,VALID,20.8741,VALID,115,VALID,1.62388,
2004-01-12, 01:00:00,VALID,918.283,VALID,0,VALID,92.0718,VALID,-0.0849042,VALID,20.8579,VALID,122,VALID,1.47438,
2004-01-12, 01:01:00,VALID,918.282,VALID,0,VALID,92.0985,VALID,-0.0849042,VALID,20.8348,VALID,122,VALID,1.42297,
2004-01-12, 01:02:00,VALID,918.26,VALID,0,VALID,92.0464,VALID,-0.0339617,VALID,20.8418,VALID,98,VALID,1.16043,
2004-01-12, 01:03:00,VALID,918.241,VALID,0,VALID,92.0298,VALID,-0.0849042,VALID,20.8316,VALID,108,VALID,1.34002,
2004-01-12, 01:04:00,VALID,918.212,VALID,0,VALID,92.0209,VALID,-0.0849042,VALID,20.8388,VALID,134,VALID,1.30629,
2004-01-12, 01:05:00,VALID,918.168,VALID,0,VALID,91.5937,VALID,-0.0849042,VALID,20.8649,VALID,151,VALID,1.89768,
2004-01-12, 01:06:00,VALID,918.159,VALID,0,VALID,91.6026,VALID,-0.0849042,VALID,20.9169,VALID,95,VALID,1.15272,
2004-01-12, 01:07:00,VALID,918.131,VALID,0,VALID,91.7882,VALID,-0.0849042,VALID,20.8937,VALID,112,VALID,0.671494,
2004-01-12, 01:08:00,VALID,918.105,VALID,0,VALID,91.8518,VALID,-0.101885,VALID,20.8585,VALID,143,VALID,0.842383,
2004-01-12, 01:09:00,VALID,918.107,VALID,0,VALID,91.8416,VALID,-0.101885,VALID,20.8418,VALID,105,VALID,0.75327,
2004-01-12, 01:10:00,VALID,918.106,VALID,0,VALID,91.8798,VALID,-0.101885,VALID,20.8264,VALID,108,VALID,0.817336,
2004-01-12, 01:11:00,VALID,918.104,VALID,0,VALID,92.1595,VALID,-0.0679233,VALID,20.7742,VALID,118,VALID,1.27379,
2004-01-12, 01:12:00,VALID,918.078,VALID,0,VALID,92.129,VALID,-0.0849042,VALID,20.7387,VALID,142,VALID,1.87946,
2004-01-12, 01:13:00,VALID,918.063,VALID,0,VALID,91.7437,VALID,-0.0679233,VALID,20.7742,VALID,122,VALID,1.33984,
2004-01-12, 01:14:00,VALID,918.047,VALID,0,VALID,91.7183,VALID,-0.0509425,VALID,20.8095,VALID,134,VALID,1.19744,
2004-01-12, 01:15:00,VALID,918.025,VALID,0,VALID,91.8111,VALID,-0.0509425,VALID,20.8062,VALID,141,VALID,1.79929,
2004-01-12, 01:16:00,VALID,918.025,VALID,0,VALID,91.7208,VALID,-0.0849042,VALID,20.8264,VALID,143,VALID,1.99833,
2004-01-12, 01:17:00,VALID,918.014,VALID,0,VALID,91.4411,VALID,-0.0509425,VALID,20.8415,VALID,132,VALID,1.90867,
2004-01-12, 01:18:00,VALID,918.02,VALID,0,VALID,91.4818,VALID,-0.0849042,VALID,20.8515,VALID,130,VALID,1.61101,
2004-01-12, 01:19:00,VALID,918.023,VALID,0,VALID,91.5988,VALID,-0.101885,VALID,20.8324,VALID,132,VALID,1.84699,
2004-01-12, 01:20:00,VALID,918.018,VALID,0,VALID,91.6712,VALID,-0.0679233,VALID,20.8229,VALID,129,VALID,1.47061,
2004-01-12, 01:21:00,VALID,918.008,VALID,0,VALID,91.6878,VALID,-0.118866,VALID,20.7998,VALID,130,VALID,1.45522,
2004-01-12, 01:22:00,VALID,918.015,VALID,0,VALID,91.6738,VALID,-0.101885,VALID,20.8038,VALID,125,VALID,1.53516,
2004-01-12, 01:23:00,VALID,917.997,VALID,0,VALID,91.5619,VALID,-0.0849042,VALID,20.807,VALID,115,VALID,1.30957,
2004-01-12, 01:24:00,VALID,917.972,VALID,0,VALID,91.5326,VALID,-0.101885,VALID,20.8197,VALID,121,VALID,1.30716,
2004-01-12, 01:25:00,VALID,917.961,VALID,0,VALID,91.5759,VALID,-0.101885,VALID,20.8105,VALID,121,VALID,1.08632,
2004-01-12, 01:26:00,VALID,917.946,VALID,0,VALID,91.7997,VALID,-0.101885,VALID,20.7777,VALID,137,VALID,1.2221,
2004-01-12, 01:27:00,VALID,917.921,VALID,0,VALID,91.9841,VALID,-0.0679233,VALID,20.7419,VALID,136,VALID,1.47359,
2004-01-12, 01:28:00,VALID,917.898,VALID,0,VALID,91.9434,VALID,-0.101885,VALID,20.7252,VALID,131,VALID,1.42599,
2004-01-12, 01:29:00,VALID,917.882,VALID,0,VALID,91.9574,VALID,-0.0849042,VALID,20.7357,VALID,132,VALID,1.17969,
2004-01-12, 01:30:00,VALID,917.869,VALID,0,VALID,92.0286,VALID,-0.0849042,VALID,20.7193,VALID,144,VALID,1.49858,
2004-01-12, 01:31:00,VALID,917.835,VALID,0,VALID,91.9802,VALID,-0.0679233,VALID,20.7158,VALID,139,VALID,1.66559,
2004-01-12, 01:32:00,VALID,917.826,VALID,0,VALID,91.8111,VALID,-0.101885,VALID,20.7454,VALID,138,VALID,1.1808,
2004-01-12, 01:33:00,VALID,917.805,VALID,0,VALID,91.9675,VALID,-0.101885,VALID,20.7317,VALID,138,VALID,1.39219,
2004-01-12, 01:34:00,VALID,917.78,VALID,0,VALID,92.157,VALID,-0.101885,VALID,20.7059,VALID,140,VALID,1.33043,
2004-01-12, 01:35:00,VALID,917.77,VALID,0,VALID,92.2905,VALID,-0.101885,VALID,20.68,VALID,135,VALID,1.28161,
2004-01-12, 01:36:00,VALID,917.751,VALID,0,VALID,92.4329,VALID,-0.101885,VALID,20.6614,VALID,135,VALID,1.69513,
2004-01-12, 01:37:00,VALID,917.719,VALID,0,VALID,92.6186,VALID,-0.101885,VALID,20.6323,VALID,134,VALID,1.45508,
2004-01-12, 01:38:00,VALID,917.695,VALID,0,VALID,92.7458,VALID,-0.0849042,VALID,20.6092,VALID,134,VALID,1.31479,
2004-01-12, 01:39:00,VALID,917.684,VALID,0,VALID,92.8348,VALID,-0.0849042,VALID,20.6,VALID,135,VALID,1.8879,
2004-01-12, 01:40:00,VALID,917.669,VALID,0,VALID,92.8767,VALID,-0.0679233,VALID,20.5737,VALID,130,VALID,1.45632,
2004-01-12, 01:41:00,VALID,917.649,VALID,0,VALID,92.8233,VALID,-0.0679233,VALID,20.5737,VALID,137,VALID,1.54137,
2004-01-12, 01:42:00,VALID,917.655,VALID,0,VALID,92.9327,VALID,-0.101885,VALID,20.5705,VALID,137,VALID,1.49698,
2004-01-12, 01:43:00,VALID,917.641,VALID,0,VALID,92.8907,VALID,-0.101885,VALID,20.5745,VALID,117,VALID,2.02287,
2004-01-12, 01:44:00,VALID,917.64,VALID,0,VALID,92.8309,VALID,-0.101885,VALID,20.5807,VALID,130,VALID,1.36016,
2004-01-12, 01:45:00,VALID,917.629,VALID,0,VALID,92.7826,VALID,-0.101885,VALID,20.5707,VALID,133,VALID,1.12138,
2004-01-12, 01:46:00,VALID,917.629,VALID,0,VALID,92.789,VALID,-0.0679233,VALID,20.564,VALID,135,VALID,1.28196,
2004-01-12, 01:47:00,VALID,917.614,VALID,0,VALID,92.803,VALID,-0.0849042,VALID,20.5548,VALID,114,VALID,1.52184,
2004-01-12, 01:48:00,VALID,917.591,VALID,0,VALID,93.042,VALID,-0.101885,VALID,20.5228,VALID,125,VALID,1.68636,
2004-01-12, 01:49:00,VALID,917.59,VALID,0,VALID,93.1527,VALID,-0.101885,VALID,20.5128,VALID,122,VALID,1.06789,
2004-01-12, 01:50:00,VALID,917.596,VALID,0,VALID,93.2658,VALID,-0.0679233,VALID,20.4835,VALID,120,VALID,1.46596,
2004-01-12, 01:51:00,VALID,917.595,VALID,0,VALID,93.3955,VALID,-0.0679233,VALID,20.4547,VALID,109,VALID,1.36868,
2004-01-12, 01:52:00,VALID,917.576,VALID,0,VALID,93.6384,VALID,-0.0509425,VALID,20.4189,VALID,116,VALID,1.1962,
2004-01-12, 01:53:00,VALID,917.551,VALID,0,VALID,93.688,VALID,-0.101885,VALID,20.4065,VALID,117,VALID,0.941576,
2004-01-12, 01:54:00,VALID,917.542,VALID,0,VALID,93.805,VALID,-0.0849042,VALID,20.3834,VALID,117,VALID,1.07719,
2004-01-12, 01:55:00,VALID,917.516,VALID,0,VALID,93.7185,VALID,-0.0849042,VALID,20.3836,VALID,107,VALID,0.846912,
2004-01-12, 01:56:00,VALID,917.51,VALID,0,VALID,94.0377,VALID,-0.0679233,VALID,20.3575,VALID,97,VALID,1.24764,
2004-01-12, 01:57:00,VALID,917.507,VALID,0,VALID,94.1623,VALID,-0.0339617,VALID,20.3538,VALID,95,VALID,1.29985,
2004-01-12, 01:58:00,VALID,917.509,VALID,0,VALID,94.0771,VALID,0.0339617,VALID,20.3694,VALID,107,VALID,1.33036,
2004-01-12, 01:59:00,VALID,917.481,VALID,0,VALID,93.9767,VALID,0.0169808,VALID,20.3791,VALID,122,VALID,1.51314,
2004-01-12, 02:00:00,VALID,917.484,VALID,0,VALID,93.8126,VALID,0.0169808,VALID,20.395,VALID,99,VALID,1.65718,
2004-01-12, 02:01:00,VALID,917.473,VALID,0,VALID,93.2557,VALID,0,VALID,20.4725,VALID,121,VALID,1.5307,
2004-01-12, 02:02:00,VALID,917.468,VALID,0,VALID,92.9378,VALID,-0.0169808,VALID,20.5535,VALID,104,VALID,0.984566,
2004-01-12, 02:03:00,VALID,917.466,VALID,0,VALID,92.8106,VALID,0,VALID,20.5719,VALID,95,VALID,1.21254,
2004-01-12, 02:04:00,VALID,917.466,VALID,0,VALID,92.8577,VALID,0.0169808,VALID,20.5823,VALID,123,VALID,1.26395,
2004-01-12, 02:05:00,VALID,917.471,VALID,0,VALID,92.906,VALID,0,VALID,20.567,VALID,115,VALID,1.34242,
2004-01-12, 02:06:00,VALID,917.457,VALID,0,VALID,92.9085,VALID,0.0169808,VALID,20.563,VALID,131,VALID,1.97334,
2004-01-12, 02:07:00,VALID,917.444,VALID,0,VALID,92.7216,VALID,0.0339617,VALID,20.5853,VALID,146,VALID,1.65885,
2004-01-12, 02:08:00,VALID,917.438,VALID,0,VALID,92.5715,VALID,0.0679233,VALID,20.6407,VALID,130,VALID,1.77894,
2004-01-12, 02:09:00,VALID,917.429,VALID,0,VALID,92.3961,VALID,0.0509425,VALID,20.6566,VALID,123,VALID,1.55966,
2004-01-12, 02:10:00,VALID,917.41,VALID,0,VALID,92.4215,VALID,0.0339617,VALID,20.64,VALID,102,VALID,1.1614,
2004-01-12, 02:11:00,VALID,917.407,VALID,0,VALID,92.7343,VALID,0.0849042,VALID,20.6208,VALID,131,VALID,1.66152,
2004-01-12, 02:12:00,VALID,917.375,VALID,0,VALID,92.7432,VALID,-0.0169808,VALID,20.6084,VALID,128,VALID,1.52535,
2004-01-12, 02:13:00,VALID,917.382,VALID,0,VALID,92.7852,VALID,-0.0849042,VALID,20.6097,VALID,110,VALID,1.62184,
2004-01-12, 02:14:00,VALID,917.382,VALID,0,VALID,92.9123,VALID,-0.0849042,VALID,20.6003,VALID,137,VALID,1.64509,
2004-01-12, 02:15:00,VALID,917.37,VALID,0,VALID,93.028,VALID,-0.0849042,VALID,20.5909,VALID,133,VALID,1.83194,
2004-01-12, 02:16:00,VALID,917.36,VALID,0,VALID,93.0624,VALID,-0.101885,VALID,20.5742,VALID,135,VALID,2.06523,
2004-01-12, 02:17:00,VALID,917.365,VALID,0,VALID,92.8755,VALID,-0.0679233,VALID,20.5936,VALID,137,VALID,1.90701,
2004-01-12, 02:18:00,VALID,917.363,VALID,0,VALID,92.6199,VALID,-0.0849042,VALID,20.6458,VALID,111,VALID,1.3837,
2004-01-12, 02:19:00,VALID,917.358,VALID,0,VALID,92.5766,VALID,-0.0849042,VALID,20.6783,VALID,125,VALID,1.2488,
2004-01-12, 02:20:00,VALID,917.338,VALID,0,VALID,92.5423,VALID,-0.0679233,VALID,20.6805,VALID,132,VALID,1.22466,
2004-01-12, 02:21:00,VALID,917.318,VALID,0,VALID,92.4342,VALID,-0.0849042,VALID,20.7037,VALID,135,VALID,1.71185,
2004-01-12, 02:22:00,VALID,917.314,VALID,0,VALID,92.3973,VALID,-0.0679233,VALID,20.7163,VALID,118,VALID,1.32395,
2004-01-12, 02:23:00,VALID,917.306,VALID,0,VALID,92.4329,VALID,-0.0849042,VALID,20.736,VALID,132,VALID,1.26879,
2004-01-12, 02:24:00,VALID,917.307,VALID,0,VALID,92.569,VALID,-0.101885,VALID,20.7295,VALID,113,VALID,1.27143,
2004-01-12, 02:25:00,VALID,917.304,VALID,0,VALID,92.5614,VALID,-0.101885,VALID,20.7161,VALID,132,VALID,1.10709,
2004-01-12, 02:26:00,VALID,917.3,VALID,0,VALID,92.7356,VALID,-0.0849042,VALID,20.7066,VALID,114,VALID,0.774962,
2004-01-12, 02:27:00,VALID,917.287,VALID,0,VALID,92.7801,VALID,-0.0339617,VALID,20.6964,VALID,107,VALID,0.687137,
2004-01-12, 02:28:00,VALID,917.272,VALID,0,VALID,92.8195,VALID,0,VALID,20.6827,VALID,112,VALID,0.825747,
2004-01-12, 02:29:00,VALID,917.262,VALID,0,VALID,92.9467,VALID,0,VALID,20.6663,VALID,95,VALID,0.544922,
2004-01-12, 02:30:00,VALID,917.246,VALID,0,VALID,92.8818,VALID,-0.0169808,VALID,20.6695,VALID,107,VALID,0.729297,
2004-01-12, 02:31:00,VALID,917.249,VALID,0,VALID,92.878,VALID,0,VALID,20.6663,VALID,139,VALID,1.19587,
2004-01-12, 02:32:00,VALID,917.233,VALID,0,VALID,92.8513,VALID,0.0169808,VALID,20.6795,VALID,149,VALID,1.18676,
2004-01-12, 02:33:00,VALID,917.242,VALID,0,VALID,92.6885,VALID,0.0169808,VALID,20.6822,VALID,136,VALID,0.790587,
2004-01-12, 02:34:00,VALID,917.22,VALID,0,VALID,92.4749,VALID,0,VALID,20.7048,VALID,118,VALID,1.42118,
2004-01-12, 02:35:00,VALID,917.187,VALID,0,VALID,92.3922,VALID,0,VALID,20.7204,VALID,118,VALID,1.40334,
2004-01-12, 02:36:00,VALID,917.157,VALID,0,VALID,92.0527,VALID,0,VALID,20.7568,VALID,117,VALID,1.24349,
2004-01-12, 02:37:00,VALID,917.164,VALID,0,VALID,92.1519,VALID,-0.0169808,VALID,20.7796,VALID,90,VALID,1.18471,
2004-01-12, 02:38:00,VALID,917.15,VALID,0,VALID,92.1087,VALID,0.0169808,VALID,20.7788,VALID,121,VALID,1.0941,
2004-01-12, 02:39:00,VALID,917.123,VALID,0,VALID,91.9116,VALID,0,VALID,20.8122,VALID,78,VALID,1.75124,
2004-01-12, 02:40:00,VALID,917.103,VALID,0,VALID,91.6242,VALID,0,VALID,20.8273,VALID,112,VALID,0.745821,
2004-01-12, 02:41:00,VALID,917.097,VALID,0,VALID,91.5721,VALID,0,VALID,20.8566,VALID,128,VALID,1.34691,
2004-01-12, 02:42:00,VALID,917.097,VALID,0,VALID,91.5212,VALID,0.0169808,VALID,20.873,VALID,125,VALID,1.8006,
2004-01-12, 02:43:00,VALID,917.091,VALID,0,VALID,91.483,VALID,-0.0169808,VALID,20.8825,VALID,114,VALID,1.82048,
2004-01-12, 02:44:00,VALID,917.08,VALID,0,VALID,91.5225,VALID,0,VALID,20.8688,VALID,124,VALID,1.36895,
2004-01-12, 02:45:00,VALID,917.062,VALID,0,VALID,91.394,VALID,0,VALID,20.8825,VALID,124,VALID,1.40004,
2004-01-12, 02:46:00,VALID,917.031,VALID,0,VALID,91.6077,VALID,0,VALID,20.8889,VALID,89,VALID,0.914993,
2004-01-12, 02:47:00,VALID,917.015,VALID,0,VALID,91.5479,VALID,0,VALID,20.873,VALID,126,VALID,0.799716,
2004-01-12, 02:48:00,VALID,917.017,VALID,0,VALID,91.5085,VALID,0,VALID,20.8765,VALID,58,VALID,0.480469,
2004-01-12, 02:49:00,VALID,916.997,VALID,0,VALID,91.6827,VALID,0,VALID,20.8792,VALID,38,VALID,0.350632,
2004-01-12, 02:50:00,VALID,917,VALID,0,VALID,91.6331,VALID,0,VALID,20.8628,VALID,312,VALID,0.511814,
2004-01-12, 02:51:00,VALID,916.995,VALID,0,VALID,92.1672,VALID,0.0169808,VALID,20.8211,VALID,215,VALID,0.681641,
2004-01-12, 02:52:00,VALID,916.992,VALID,0,VALID,92.6237,VALID,0,VALID,20.7729,VALID,251,VALID,0.428013,
2004-01-12, 02:53:00,VALID,916.996,VALID,0,VALID,93.1628,VALID,0,VALID,20.6922,VALID,298,VALID,0.128906,
2004-01-12, 02:54:00,VALID,917.005,VALID,0,VALID,93.6028,VALID,-0.0679233,VALID,20.631,VALID,298,VALID,0.023247,
2004-01-12, 02:55:00,VALID,917.001,VALID,0,VALID,94.0135,VALID,0,VALID,20.5759,VALID,296,VALID,0.20827,
2004-01-12, 02:56:00,VALID,917,VALID,0,VALID,94.3175,VALID,-0.0169808,VALID,20.4919,VALID,255,VALID,0.409896,
2004-01-12, 02:57:00,VALID,916.975,VALID,0,VALID,94.6544,VALID,0,VALID,20.4241,VALID,248,VALID,0.120312,
2004-01-12, 02:58:00,VALID,916.978,VALID,0,VALID,94.8375,VALID,-0.0169808,VALID,20.3858,VALID,248,VALID,0,
2004-01-12, 02:59:00,VALID,916.95,VALID,0,VALID,94.8871,VALID,-0.0169808,VALID,20.3468,VALID,248,VALID,0,
2004-01-12, 03:00:00,VALID,916.941,VALID,0,VALID,95.0664,VALID,-0.0339617,VALID,20.3302,VALID,248,VALID,0,
2004-01-12, 03:01:00,VALID,916.925,VALID,0,VALID,95.2508,VALID,0,VALID,20.3299,VALID,248,VALID,0,
2004-01-12, 03:02:00,VALID,916.896,VALID,0,VALID,95.3996,VALID,-0.0339617,VALID,20.3202,VALID,248,VALID,0,
2004-01-12, 03:03:00,VALID,916.877,VALID,0,VALID,95.4187,VALID,-0.0509425,VALID,20.2984,VALID,248,VALID,0.0884811,
2004-01-12, 03:04:00,VALID,916.869,VALID,0,VALID,95.6501,VALID,0,VALID,20.2594,VALID,248,VALID,0,
2004-01-12, 03:05:00,VALID,916.868,VALID,0,VALID,95.8726,VALID,0,VALID,20.2306,VALID,248,VALID,0.0217226,
2004-01-12, 03:06:00,VALID,916.876,VALID,0,VALID,96.0672,VALID,-0.0169808,VALID,20.2042,VALID,248,VALID,0.0811821,
2004-01-12, 03:07:00,VALID,916.896,VALID,0,VALID,96.1982,VALID,0.0169808,VALID,20.202,VALID,248,VALID,0,
2004-01-12, 03:08:00,VALID,916.885,VALID,0,VALID,96.2719,VALID,-0.0169808,VALID,20.1752,VALID,248,VALID,0,
2004-01-12, 03:09:00,VALID,916.883,VALID,0,VALID,96.427,VALID,0,VALID,20.1724,VALID,248,VALID,0,
2004-01-12, 03:10:00,VALID,916.87,VALID,0,VALID,96.5987,VALID,0,VALID,20.169,VALID,248,VALID,0,
2004-01-12, 03:11:00,VALID,916.845,VALID,0,VALID,96.6407,VALID,0,VALID,20.1553,VALID,248,VALID,0,
2004-01-12, 03:12:00,VALID,916.845,VALID,0,VALID,96.6623,VALID,0.0169808,VALID,20.1655,VALID,248,VALID,0.19077,
2004-01-12, 03:13:00,VALID,916.835,VALID,0,VALID,96.7043,VALID,0.0169808,VALID,20.1396,VALID,248,VALID,0.140807,
2004-01-12, 03:14:00,VALID,916.841,VALID,0,VALID,96.7462,VALID,0,VALID,20.1431,VALID,135,VALID,0.561756,
2004-01-12, 03:15:00,VALID,916.828,VALID,0,VALID,96.7017,VALID,-0.0169808,VALID,20.124,VALID,107,VALID,0.494913,
2004-01-12, 03:16:00,VALID,916.828,VALID,0,VALID,96.7717,VALID,-0.0169808,VALID,20.1046,VALID,108,VALID,0.0306784,
2004-01-12, 03:17:00,VALID,916.826,VALID,0,VALID,96.8174,VALID,0,VALID,20.1081,VALID,108,VALID,0.046875,
2004-01-12, 03:18:00,VALID,916.835,VALID,0,VALID,96.8785,VALID,0.0169808,VALID,20.1113,VALID,108,VALID,0.246354,
2004-01-12, 03:19:00,VALID,916.853,VALID,0,VALID,96.8505,VALID,0,VALID,20.1068,VALID,108,VALID,0.179688,
2004-01-12, 03:20:00,VALID,916.875,VALID,0,VALID,96.9026,VALID,-0.0169808,VALID,20.1205,VALID,108,VALID,0,
2004-01-12, 03:21:00,VALID,916.882,VALID,0,VALID,96.9916,VALID,0,VALID,20.1469,VALID,108,VALID,0,
2004-01-12, 03:22:00,VALID,916.879,VALID,0,VALID,97.0896,VALID,0.0169808,VALID,20.1526,VALID,108,VALID,0,
2004-01-12, 03:23:00,VALID,916.87,VALID,0,VALID,97.1239,VALID,0,VALID,20.1628,VALID,108,VALID,0,
2004-01-12, 03:24:00,VALID,916.85,VALID,0,VALID,97.0692,VALID,0,VALID,20.1595,VALID,108,VALID,0.101367,
2004-01-12, 03:25:00,VALID,916.826,VALID,0,VALID,96.881,VALID,0,VALID,20.1593,VALID,108,VALID,0.0162109,
2004-01-12, 03:26:00,VALID,916.802,VALID,0,VALID,96.731,VALID,0,VALID,20.1528,VALID,113,VALID,0.261052,
2004-01-12, 03:27:00,VALID,916.777,VALID,0,VALID,96.6954,VALID,-0.0169808,VALID,20.1628,VALID,115,VALID,0,
2004-01-12, 03:28:00,VALID,916.767,VALID,0,VALID,96.6941,VALID,-0.0339617,VALID,20.1772,VALID,115,VALID,0,
2004-01-12, 03:29:00,VALID,916.75,VALID,0,VALID,96.7043,VALID,-0.0849042,VALID,20.1831,VALID,115,VALID,0,
2004-01-12, 03:30:00,VALID,916.756,VALID,0,VALID,96.7475,VALID,-0.0849042,VALID,20.1963,VALID,115,VALID,0,
2004-01-12, 03:31:00,VALID,916.752,VALID,0,VALID,96.7882,VALID,-0.0339617,VALID,20.2025,VALID,115,VALID,0.0855741,
2004-01-12, 03:32:00,VALID,916.746,VALID,0,VALID,96.8594,VALID,-0.0849042,VALID,20.2157,VALID,115,VALID,0.000390625,
2004-01-12, 03:33:00,VALID,916.742,VALID,0,VALID,96.9382,VALID,-0.0849042,VALID,20.2219,VALID,115,VALID,0.0436046,
2004-01-12, 03:34:00,VALID,916.747,VALID,0,VALID,97.0056,VALID,-0.0509425,VALID,20.2316,VALID,115,VALID,0,
2004-01-12, 03:35:00,VALID,916.747,VALID,0,VALID,96.942,VALID,-0.0849042,VALID,20.2219,VALID,115,VALID,0.0316406,